Regional Weather Roundup
Issued by NWS

Home | Current Version | Previous Version | Graphics & Text | Print | Product List | Glossary On
Versions: 1 2 3 4 5 6 7 8 9 10 11 12 13 14 15 16 17 18 19 20 21 22 23 24 25 26 27 28 29 30 31 32 33 34 35 36 37 38 39 40 41 42 43 44 45 46 47 48 49 50
000
ASUS43 KMKX 290000
RWRWI

WISCONSIN REGIONAL WEATHER ROUNDUP
NATIONAL WEATHER SERVICE MILWAUKEE/SULLIVAN WI
700 PM CDT FRI AUG 28 2015

NOTE: "FAIR" INDICATES FEW OR NO CLOUDS BELOW 12,000 FEET WITH NO
SIGNIFICANT WEATHER AND/OR OBSTRUCTIONS TO VISIBILITY.

WIZ001-002-006>008-014>016-023>028-290100-
NORTHWEST WISCONSIN

CITY           SKY/WX    TMP DP  RH WIND       PRES   REMARKS
SUPERIOR ARPT  PTCLDY    76  62  63 SW12      29.93R
ASHLAND        CLEAR     73  63  70 S12       29.96R
6HR MIN TEMP:  73; 6HR MAX TEMP:  81;

HAYWARD        PTCLDY    71  62  73 S8        30.00R
6HR MIN TEMP:  71; 6HR MAX TEMP:  78;

SIREN          CLEAR     73  60  63 S7        29.98S
CUMBERLAND     PTCLDY    68  61  77 S8        30.01S
RICE LAKE      CLEAR     70  60  72 S9        30.02F
CHETEK         PTCLDY   N/A N/A N/A S6        30.02S
LADYSMITH      CLOUDY    69  63  82 S7        30.04S
6HR MIN TEMP:  68; 6HR MAX TEMP:  72;

EAU CLAIRE     MOCLDY    64  59  83 S12       30.04R
MENOMONIE      CLOUDY    65  60  82 S12       30.04S
6HR MIN TEMP:  65; 6HR MAX TEMP:  73; 6HR PCP:  0.02;

NEW RICHMOND   PTCLDY    69  58  67 S10G17    30.01S
OSCEOLA        PTCLDY    71  60  67 S12       30.02S
$$

WIZ003>005-009-010-017-018-290100-
NORTH CENTRAL WISCONSIN

CITY           SKY/WX    TMP DP  RH WIND       PRES   REMARKS
MANITOWISH WTR PTCLDY    69  62  79 SW10G18   30.01F
ARBOR VITAE    MOCLDY    69  63  79 SW8       30.04R
WOODRUFF       MOCLDY    69  63  79 SW8       30.04R
RHINELANDER    CLOUDY    66  61  84 SW7       30.05F
6HR MIN TEMP:  66; 6HR MAX TEMP:  71;

EAGLE RIVER    MOCLDY    67  59  73 SW8       30.03S
LAND O LAKES   MOCLDY    70  61  73 SW6       30.03S
PHILLIPS       MOCLDY    67  62  85 S7        30.03S
6HR MIN TEMP:  67; 6HR MAX TEMP:  70;

TOMAHAWK       CLOUDY    65  61  87 CALM      30.05F
6HR MIN TEMP:  65; 6HR MAX TEMP:  68;

MEDFORD        CLOUDY    64  62  96 CALM      30.06F
MERRILL        CLOUDY    64  64  97 SW3       30.07S
6HR MIN TEMP:  64; 6HR MAX TEMP:  68;

$$

WIZ029-030-035-036-043>047-290100-
CENTRAL WISCONSIN

CITY           SKY/WX    TMP DP  RH WIND       PRES   REMARKS
WAUSAU         CLOUDY    63  61  93 S5        30.05R
6HR MIN TEMP:  63; 6HR MAX TEMP:  67; 6HR PCP:  0.02;

MOSINEE        NOT AVBL
MARSHFIELD     LGT RAIN  64  60  87 S12       30.06S FOG
6HR MIN TEMP:  64; 6HR MAX TEMP:  66; 6HR PCP:  0.12;

STEVENS POINT  LGT RAIN  61  60  97 CALM      30.06F
WAUPACA        RAIN      63  62  96 CALM      30.06F
6HR MIN TEMP:  63; 6HR MAX TEMP:  69;

WAUTOMA        NOT AVBL
WISC RAPIDS    RAIN      63  61  93 S5        30.08S FOG
6HR MIN TEMP:  63; 6HR MAX TEMP:  65; 6HR PCP:  0.26;

CAMP DOUGLAS   NOT AVBL
$$

WIZ011>013-019>022-031-037>040-048>050-290100-
NORTHEAST WISCONSIN

CITY           SKY/WX    TMP DP  RH WIND       PRES   REMARKS
ANTIGO         LGT RAIN  64  62  94 S3        30.06F
SHAWANO        DRIZZLE   66  64  91 CALM      30.05F
OCONTO         CLOUDY    64  64 100 CALM      30.05F
6HR MIN TEMP:  64; 6HR MAX TEMP:  74;

STURGEON BAY   CLOUDY    64  61  88 SW8       30.08F
6HR MIN TEMP:  64; 6HR MAX TEMP:  73;

GREEN BAY      LGT RAIN  64  61  90 CALM      30.06F FOG
6HR MIN TEMP:  64; 6HR MAX TEMP:  70; 6HR PCP:  0.05;

MANITOWOC      NOT AVBL
APPLETON       LGT RAIN  63  61  94 VRB3      30.05F
CLINTONVILLE   DRIZZLE   63  63 100 S5        30.06S
OSHKOSH        LGT RAIN  65  62  90 SE3       30.06F FOG
6HR MIN TEMP:  65; 6HR MAX TEMP:  69; 6HR PCP:  0.10;

$$

WIZ032>034-041-042-053>061-290100-
SOUTHWEST WISCONSIN

CITY           SKY/WX    TMP DP  RH WIND       PRES   REMARKS
LA CROSSE      LGT RAIN  60  57  89 E9        30.03F
6HR MIN TEMP:  60; 6HR MAX TEMP:  65; 6HR PCP:  1.14;

SPARTA         RAIN      58  56  92 E6        30.09S
VIROQUA        CLOUDY    58  58 100 NE10      30.06F
BOSCOBEL       RAIN      62  60  93 E7        30.02S FOG
6HR MIN TEMP:  62; 6HR MAX TEMP:  65; 6HR PCP:  0.91;

PRAIRIE DU CHI HVY RAIN  62  61  95 CALM      30.01S
PLATTEVILLE    CLOUDY    64  63  97 SE15      30.01F
$$

WIZ056-057-062-063-064-067-068-290100-
SOUTH CENTRAL WISCONSIN

CITY           SKY/WX    TMP DP  RH WIND       PRES   REMARKS
REEDSBURG      RAIN      60  59  94 E3        30.06F
BARABOO/DELLS  RAIN      61  57  88 E6        30.08R
LONE ROCK      NOT AVBL
MINERAL POINT  RAIN      63  61  94 SE17G25   30.00F
MADISON        LGT RAIN  64  62  93 SE7       30.08S FOG
6HR MIN TEMP:  64; 6HR MAX TEMP:  67; 6HR PCP:  0.28;

MIDDLETON      CLOUDY    65  64  99 SE3       30.08S
WATERTOWN      LGT RAIN  64  64 100 CALM      30.08R
MONROE         LGT RAIN  63  63 100 NE6       30.07R
JANESVILLE     PTCLDY    66  64  94 E6        30.06S
$$

WIZ051-052-058>065-066-070>072-290100-
SOUTHEAST WISCONSIN

CITY           SKY/WX    TMP DP  RH WIND       PRES   REMARKS
MILWAUKEE      LGT RAIN  66  62  87 S7        30.09R FOG
6HR MIN TEMP:  66; 6HR MAX TEMP:  73; 6HR PCP:  0.02;

WAUKESHA       CLOUDY    64  63  94 SE6       30.11R
MILWAUKEE/TIMM NOT AVBL
RACINE         LGT RAIN  67  61  81 CALM      30.10R
6HR MIN TEMP:  66; 6HR MAX TEMP:  71; 6HR PCP:  0.01;

BURLINGTON     LGT RAIN  64  62  94 CALM      30.09R
KENOSHA        LGT RAIN  68  62  81 SE5       30.09R
6HR MIN TEMP:  67; 6HR MAX TEMP:  74; 6HR PCP:  0.01;

FOND DU LAC    LGT RAIN  66  63  90 SE3       30.07F
6HR MIN TEMP:  66; 6HR MAX TEMP:  69; 6HR PCP:  0.05;

SHEBOYGAN      LGT RAIN  66  64  93 CALM      30.09R FOG
6HR MIN TEMP:  66; 6HR MAX TEMP:  72; 6HR PCP:  0.01;

WEST BEND      RAIN      64  61  88 CALM      30.08S
JUNEAU         RAIN      64  63  96 S7        30.10R
6HR MIN TEMP:  64; 6HR MAX TEMP:  67; 6HR PCP:  0.01;

$$

LSZ147-162-290100-
LAKE SUPERIOR

STATION/POSITION TIME  TEMP    WIND        PRES    WAVE
                       AIR SEA DIR/SP/G            HT/PER
                 (UTC) (F)     (DEG/KT/KT) (MB)    (FT/S)
W MID LAKE BUOY  2250   66 56  200/ 16/ 19 1012.3F   0
DEVILS ISLAND    2300   70     130/  6/  7 1013.1R
PORT WING        2300   78     210/ 10/ 15 1013.2R
SAXON HARBOR     2340   76     200/  3/  8 1013.9R
$$

LMZ867-665-643>646-290100-
LAKE MICHIGAN

STATION/POSITION TIME  TEMP    WIND        PRES    WAVE
                       AIR SEA DIR/SP/G            HT/PER
                 (UTC) (F)     (DEG/KT/KT) (MB)    (FT/S)
CHAMBERS ISLAND  2300   66     190/  9/ 15 1017.3R
S GREEN BAY BUOY 2330   65 62  220/ 12/ 14 1019.2R
N MID LAKE BUOY  2250   64 64  200/ 17/ 21 1016.8F   3/ 5
NORTHPORT PIER   2300   65     170/  3/  7 1017.3R
SISTER BAY       2319   68     230/ 17/ 20   N/A
ALGOMA LAKESHORE 2314          230/  9/ 10   N/A
SHEBOYGAN LAKESH 2300   64     190/  7/  7 1019.0F
PORT WASHINGTON  2300   58      90/  2/  2 1019.3F
ATWATER BUOY     2300   56 49  100/  4/  4 1019.7F
MILWAUKEE LAKESH 2300   60      40/  3/  4   N/A
S MID LAKE BUOY  2250   69 69  160/  4/  4 1019.0R
KENOSHA   LAKESH 2300   62      CALM  /  4 1018.3F
$$

TC  - TEMPERATURE IN CELSIUS
VSB - VISIBILITY IN STATUTE MILES
WCI - WIND CHILL INDEX
HX  - HEAT INDEX




USA.gov is the U.S. government's official web portal to all federal, state and local government web resources and services.